Dewpoint
34 37 39 41 43 44 45 46 46 45 44 42 40 38 37 38 39 40 42 42 40 38 37 36 35 34 33 32 32 32 32 31 30 29 29 29 28 27 26 25 25 25 26 25 24 26 22 22 22 22 21 19 18 18 17 19 17 17 19 22 18 17 16 18 18 15 14 13 15 13 14 19 19 10 7 7 7 9 13 16 18 17 17 17 17
29 33 37 39 41 42 44 44 44 44 43 42 40 39 38 37 37 38 39 40 39 38 37 36 35 35 33 32 32 32 31 31 29 29 29 29 28 27 27 26 25 24 25 24 24 24 22 21 21 22 21 19 19 19 18 23 22 19 20 19 19 16 15 16 17 14 10 9 7 7 13 16 20 9 8 7 7 6 8 9 12 14 15 16 16
23 28 33 37 39 41 42 43 44 43 43 41 41 40 38 37 36 37 38 38 38 38 38 37 36 35 34 33 32 32 31 31 30 30 29 28 28 28 27 26 26 24 24 25 24 24 22 21 21 21 20 21 20 19 19 20 19 18 18 16 16 20 20 20 16 15 10 13 12 13 9 7 16 11 11 9 6 6 6 9 12 12 13 14 14
20 22 27 34 37 39 41 42 43 42 42 41 40 39 39 37 36 36 36 37 37 37 37 37 36 35 35 34 32 31 30 31 30 28 28 27 27 27 27 26 26 25 24 24 24 24 22 21 20 21 20 21 19 18 18 18 19 18 17 19 16 14 14 16 18 15 12 11 9 9 9 7 4 8 4 12 10 4 7 7 8 10 12 13 12
18 20 23 29 35 37 39 41 42 41 41 41 40 39 39 38 37 36 36 35 36 36 36 36 35 34 32 30 31 28 28 29 27 26 26 27 26 26 26 26 26 25 24 24 24 23 23 21 20 20 20 21 20 19 18 18 19 17 17 18 15 15 13 12 19 17 13 14 13 8 5 4 6 10 6 7 7 2 3 7 13 6 8 10 7
18 18 20 25 30 35 37 39 40 41 41 41 40 40 39 38 37 35 35 35 34 34 35 34 34 33 30 30 29 29 29 28 28 27 26 25 26 25 26 26 26 25 25 24 24 23 22 22 21 20 20 21 20 18 18 18 18 18 17 16 15 15 15 10 10 20 13 19 12 11 11 12 9 9 6 5 9 7 8 4 2 1 2 2 2
16 19 20 22 26 31 35 37 39 40 40 40 40 39 39 38 37 35 34 34 34 34 34 34 33 32 31 31 31 30 30 29 29 29 28 26 26 24 25 25 26 25 25 24 24 23 22 22 21 20 20 20 22 18 18 18 18 18 19 17 15 18 14 13 12 13 7 11 13 17 19 17 12 7 5 5 4 5 2 1 -1 1 1 -1 -0
15 17 19 21 23 28 31 35 38 39 40 40 39 38 37 37 36 35 34 33 33 32 33 33 32 32 31 31 31 31 31 30 29 29 29 27 25 24 24 24 25 25 24 24 24 23 23 22 21 20 19 19 21 18 17 18 18 18 19 17 16 17 15 16 13 9 10 7 12 11 15 8 7 9 9 8 9 3 1 0 -2 -2 1 2 3
16 17 18 19 21 23 27 30 34 37 38 38 39 38 37 36 35 34 34 33 32 31 31 32 32 32 31 31 31 31 31 31 30 30 28 27 25 24 23 23 24 24 24 24 24 23 24 22 21 20 19 19 23 19 18 18 17 18 19 17 16 17 15 16 14 11 10 9 8 5 5 3 2 5 9 9 7 4 3 -2 -3 -4 -5 -5 -1
19 20 20 21 21 22 24 26 28 33 37 37 38 38 37 35 35 34 33 32 32 30 30 30 31 31 30 30 30 30 30 30 28 26 26 25 25 23 22 22 22 23 23 23 24 24 23 22 21 20 19 19 22 19 18 18 17 17 18 17 16 17 15 17 15 13 10 9 6 4 3 0 -0 0 1 2 0 6 8 2 -0 -6 -6 -6 -2
19 21 22 23 23 23 23 24 26 27 30 33 35 36 37 36 35 34 33 32 31 30 29 29 29 30 30 29 29 29 29 28 26 23 23 22 24 23 22 21 21 22 22 23 23 23 23 23 21 20 20 21 22 19 18 17 17 17 18 17 16 16 15 16 20 14 11 11 6 5 4 3 4 4 4 1 2 -2 -1 -1 -4 -4 -4 -6 -8
20 20 21 22 24 24 25 24 24 25 27 30 32 32 33 35 35 34 33 32 31 30 29 28 28 28 29 29 29 29 29 28 26 25 22 22 22 23 22 21 20 21 21 21 22 23 23 23 22 20 20 20 20 20 18 17 17 16 17 16 16 16 15 15 17 13 10 11 7 5 5 3 4 5 4 4 3 2 2 -0 -2 -7 -8 -7 -6
20 20 21 22 22 23 24 25 25 24 25 26 28 30 30 30 32 33 34 33 31 30 29 28 28 28 28 28 28 28 28 28 27 26 23 22 21 22 21 20 19 20 20 21 21 22 22 22 22 20 20 20 20 20 18 17 16 16 16 15 15 15 14 15 16 13 11 11 9 6 6 4 4 4 3 3 3 4 1 1 -5 -7 -5 -8 -7
21 21 21 22 22 22 23 23 24 25 25 24 25 27 28 28 28 30 32 32 31 30 29 28 27 27 27 27 27 27 27 27 27 26 24 22 21 21 21 20 19 19 20 20 21 21 22 22 22 21 20 20 20 20 18 17 16 15 14 14 13 14 12 13 15 13 10 10 8 7 6 5 5 1 2 1 1 2 -0 2 -3 -7 -8 -8 -7
21 22 21 21 21 21 21 22 22 23 24 24 24 24 25 26 27 27 28 29 29 29 28 28 27 26 26 27 27 26 26 26 26 25 24 22 21 20 20 19 19 18 19 20 20 20 21 21 21 21 20 20 20 20 19 17 16 15 14 13 12 11 11 12 12 11 9 8 6 7 6 4 4 -1 0 0 0 1 1 2 0 -3 -6 -7 -7
21 21 22 20 20 20 21 21 21 21 22 22 23 24 24 24 24 25 25 26 26 26 27 27 27 26 25 25 25 26 26 25 25 24 23 22 21 20 19 19 18 18 17 18 19 20 21 21 21 21 20 20 20 20 18 17 15 15 14 13 11 9 9 10 10 9 8 6 5 5 5 4 1 -1 -1 -1 -0 1 1 0 1 2 1 -1 -3
20 21 22 21 20 20 20 20 20 20 20 20 21 22 23 23 23 22 23 23 23 25 25 25 25 25 25 24 24 24 24 24 24 23 22 22 21 20 19 19 18 17 17 18 19 20 20 21 21 21 20 19 19 19 18 17 15 15 14 13 12 7 9 9 8 7 6 5 4 4 5 5 0 -3 -2 -1 -1 0 1 1 2 2 4 3 -6
19 19 21 21 20 20 19 20 20 19 19 19 20 20 21 22 22 22 22 21 22 22 22 23 23 23 24 24 23 23 23 23 23 23 22 21 20 20 19 18 18 17 17 18 18 20 20 21 21 21 20 19 19 19 17 16 15 14 13 12 11 7 8 8 7 6 5 3 4 4 4 4 1 -1 -1 -1 -1 2 1 2 1 3 4 3 3
18 18 20 20 20 19 18 19 20 19 19 19 19 19 19 20 20 21 22 22 21 21 21 21 22 22 22 23 23 22 22 22 22 22 21 20 20 19 19 19 18 18 18 18 18 19 20 21 20 20 20 19 18 18 16 15 14 14 12 11 9 6 7 7 6 5 4 3 3 3 3 3 1 1 -0 1 -0 2 1 1 1 2 2 3 3
17 18 19 20 20 18 18 18 19 19 19 18 18 18 18 18 19 19 20 21 21 21 21 20 21 21 21 21 21 22 22 22 21 21 20 20 20 20 19 19 19 19 19 19 20 19 20 20 20 20 19 18 17 16 15 14 13 13 11 10 7 6 6 5 4 4 3 3 3 3 3 2 1 1 1 1 1 1 1 1 2 1 0 2 2
17 17 18 20 19 17 16 17 19 20 19 18 18 18 18 18 18 18 18 18 19 20 21 21 21 20 21 20 20 21 21 21 21 20 20 20 20 20 19 19 19 20 20 19 19 20 19 19 19 19 18 17 16 15 13 13 12 12 10 9 6 5 6 4 3 2 1 2 4 4 3 3 1 2 2 2 2 1 1 2 2 1 -0 0 2
17 17 18 20 19 16 16 17 18 19 18 17 17 18 17 18 17 17 17 17 17 17 18 20 21 21 21 21 21 21 20 20 20 20 20 20 20 20 19 19 19 20 20 20 20 19 18 19 18 18 17 17 16 15 12 12 11 11 8 7 4 4 5 3 3 1 1 2 3 3 3 2 1 3 3 2 2 2 1 1 1 1 0 0 0
17 17 19 20 17 16 15 16 17 17 17 17 17 17 16 17 17 17 17 17 17 16 16 17 18 19 19 20 19 18 18 18 19 19 19 19 19 19 19 20 20 19 19 20 19 18 17 17 17 17 16 15 15 14 12 11 11 11 8 6 4 4 4 4 3 2 2 3 4 5 3 2 1 2 2 2 2 1 2 1 1 1 1 0 -0
16 16 19 19 16 15 14 15 16 16 16 17 17 17 16 16 17 17 17 17 17 17 16 14 14 15 16 15 15 15 15 15 16 17 17 18 19 20 19 20 20 19 17 18 17 16 16 15 15 15 14 14 14 13 12 12 12 10 9 7 4 4 4 4 4 3 4 4 5 4 3 2 2 1 2 1 2 2 2 1 0 1 1 1 -0
14 14 18 17 14 13 13 14 15 14 14 17 18 17 17 16 17 17 17 17 17 17 16 15 13 12 13 13 12 12 13 13 14 16 16 17 18 18 18 19 19 18 16 15 15 14 14 14 14 14 13 13 13 13 12 11 11 10 9 7 6 5 7 7 6 5 7 6 5 5 4 3 2 1 1 0 1 0 1 1 -0 0 -0 1 -0
13 13 17 15 13 12 12 13 13 11 12 16 17 16 16 16 17 18 17 17 17 17 17 17 15 13 12 14 14 13 12 12 12 14 16 17 17 16 17 17 16 15 14 14 14 13 13 13 13 12 12 12 11 12 11 11 10 10 9 8 8 7 7 8 7 6 6 6 6 5 4 3 2 1 1 1 1 -0 -0 -1 -1 -1 -0 -0 -0
13 14 15 14 13 11 12 12 11 9 12 15 15 14 14 16 17 17 16 17 17 17 19 18 17 15 16 13 13 12 11 11 13 15 15 15 15 15 15 14 14 14 13 12 12 12 12 12 12 11 11 11 11 11 11 10 9 9 10 10 8 7 6 7 7 7 6 6 6 5 4 3 2 2 1 0 -0 -1 -1 -1 -1 -1 -1 -2 -2
14 13 13 13 12 12 12 11 10 9 12 15 13 13 14 16 15 14 14 16 16 17 18 19 18 18 16 14 13 13 13 13 14 14 14 15 14 13 13 13 13 12 12 12 12 12 11 11 11 10 11 11 10 10 9 10 10 10 10 9 7 7 6 5 5 5 6 5 5 5 4 3 2 2 2 1 0 -1 -1 -2 -1 -2 -2 -2 -3
14 12 11 11 12 12 12 10 9 11 13 12 11 12 15 14 13 12 13 16 16 17 17 18 18 18 17 16 15 15 16 16 15 14 13 13 12 12 12 12 12 12 13 12 13 13 12 11 11 11 10 11 11 10 10 10 10 10 9 8 7 6 6 5 4 4 4 4 4 3 3 2 3 5 6 5 4 4 -1 -1 -3 -3 -3 -3 -3
12 9 8 10 12 12 11 9 10 11 10 9 10 13 13 12 11 12 13 14 16 16 16 17 17 18 18 18 18 18 17 16 14 13 12 12 12 12 12 12 11 12 12 13 13 13 13 12 11 11 11 10 10 10 11 13 13 9 8 7 7 6 6 5 4 3 2 3 2 2 1 6 6 8 8 8 7 7 6 2 -1 -2 -2 -2 -4
7 7 8 11 12 11 10 10 11 9 8 9 11 13 12 11 10 12 13 14 15 16 16 17 18 19 20 20 19 17 16 14 13 12 13 12 11 12 12 11 11 11 11 12 12 13 12 12 12 11 10 10 10 9 14 17 17 16 9 7 7 6 6 5 4 3 2 1 1 0 -2 5 7 8 7 9 9 8 8 7 6 4 3 -1 -3
7 7 8 12 12 11 11 11 10 8 7 10 12 12 11 10 10 12 13 14 15 15 16 17 18 19 19 19 18 16 14 13 12 11 12 12 12 11 11 11 11 10 11 11 11 12 11 11 11 11 10 9 9 12 17 18 19 18 14 8 7 6 5 5 4 3 2 2 1 -1 -1 -0 3 3 4 6 8 9 9 9 8 7 6 6 6
6 7 10 12 12 11 11 10 9 7 8 11 12 11 10 10 11 12 13 13 13 15 16 17 18 19 19 18 17 15 13 12 12 12 12 12 11 11 11 10 10 10 10 10 11 11 11 11 11 10 9 10 9 14 18 19 20 20 18 12 7 7 6 4 4 3 2 2 2 1 -0 -1 0 6 7 3 4 6 10 10 10 9 8 7 11
7 8 12 13 9 7 9 9 8 8 10 11 12 11 10 11 11 11 11 12 14 15 16 17 17 17 17 17 16 15 13 13 11 11 10 10 10 10 10 10 10 10 9 9 10 10 10 10 10 10 9 9 8 14 18 19 19 20 20 16 7 7 6 4 4 3 3 3 3 2 1 -0 -1 2 4 3 2 1 2 5 6 6 4 6 8
6 7 6 4 4 4 7 9 9 10 10 11 10 10 11 11 11 11 12 13 14 15 15 15 15 16 16 15 15 14 13 12 11 11 10 10 10 10 10 10 10 10 9 9 9 9 9 9 9 9 9 8 8 15 18 19 19 19 20 20 7 7 6 4 4 3 3 3 3 3 3 2 1 -1 1 3 0 -0 -1 -0 0 1 2 2 3
5 4 4 4 4 5 8 10 10 10 9 9 8 10 11 11 11 11 12 13 13 13 13 14 14 15 15 15 14 14 12 11 11 10 10 10 10 10 10 10 9 9 10 9 9 10 9 8 9 9 8 7 8 16 18 18 19 20 20 20 9 8 6 5 4 3 3 4 4 3 3 2 2 0 3 7 5 1 -0 -3 -3 -2 -2 -1 -0
5 4 4 4 4 6 10 10 9 9 8 7 8 10 11 10 10 11 12 12 12 12 12 13 13 13 13 13 14 14 12 12 11 10 10 10 10 10 10 10 9 9 9 9 9 9 9 8 8 8 8 7 7 15 18 18 19 20 19 16 10 9 8 7 6 4 4 4 4 4 3 3 2 2 5 12 14 7 -2 -3 -4 -4 -4 -3 -2
4 4 4 5 5 8 9 8 8 8 8 7 8 11 11 10 10 11 11 11 11 11 12 11 10 10 11 12 13 13 13 12 11 10 10 10 10 10 9 10 9 9 8 9 9 8 9 8 7 7 7 7 6 11 18 19 19 19 18 13 10 10 9 8 8 7 6 5 5 7 6 3 3 3 8 13 14 12 1 -1 -3 -3 -4 -3 -2
4 4 5 5 6 8 8 8 9 8 7 7 10 11 10 9 9 10 10 10 10 11 11 10 9 10 10 11 11 12 12 12 12 11 10 10 10 9 9 9 9 9 8 8 8 7 7 7 7 7 8 7 6 8 16 18 19 19 17 14 10 9 9 9 9 8 8 7 6 8 8 6 5 6 13 14 15 12 10 6 4 3 2 2 2
5 5 5 6 8 8 8 8 8 7 7 9 11 11 9 8 9 10 9 9 9 10 10 9 9 9 10 10 10 11 12 12 12 11 10 10 10 9 9 8 8 8 8 7 7 7 6 6 6 5 6 6 5 5 8 16 17 18 18 14 11 8 7 7 8 8 7 6 7 8 10 11 14 13 14 15 15 16 12 11 10 8 6 5 7
6 6 9 8 8 8 8 8 8 7 8 10 10 9 8 8 9 9 8 8 9 9 9 8 8 8 8 9 10 10 11 12 11 11 10 9 9 8 8 8 7 7 7 6 6 6 5 4 4 4 4 5 4 4 4 14 16 16 17 16 10 10 9 8 7 7 7 6 5 6 7 10 13 15 16 17 17 17 16 13 11 10 9 9 10
7 8 9 8 9 8 8 7 6 8 10 10 8 7 7 8 8 7 7 8 9 9 8 8 8 8 8 8 9 10 10 10 10 9 9 8 8 8 8 7 7 6 6 5 4 4 4 3 3 3 2 3 3 4 2 10 14 15 15 15 11 10 10 9 8 7 7 7 6 6 6 7 10 13 14 16 16 17 17 14 14 17 17 16 11
7 7 9 9 9 9 9 7 7 8 9 9 8 7 7 8 7 7 7 8 8 8 8 7 7 7 7 7 8 9 9 9 8 8 8 8 7 7 6 6 6 5 5 4 3 3 3 2 1 1 1 1 1 2 4 3 10 13 14 14 14 12 14 10 7 6 6 6 6 6 6 8 11 13 14 15 15 16 14 13 16 17 16 15 14
9 9 10 10 8 9 8 7 7 8 8 8 8 7 7 7 6 7 7 7 7 7 7 6 6 6 6 6 6 6 6 6 7 7 8 7 6 6 5 5 5 4 4 3 2 2 1 0 -1 -1 -2 -1 -1 -1 3 3 2 10 12 13 13 13 13 11 10 7 7 6 5 5 6 11 12 13 14 14 14 13 12 15 15 15 13 12 11
11 11 10 10 9 9 9 8 8 7 7 7 6 6 6 5 5 6 6 6 6 6 6 5 5 5 5 4 4 4 4 5 5 6 6 5 5 4 4 4 4 3 2 2 1 -0 -1 -1 -2 -2 -2 -2 -2 -3 -5 -1 3 2 9 11 12 13 12 11 11 10 9 7 8 12 12 13 13 13 14 14 13 12 14 15 13 12 12 8 6
11 11 11 11 10 9 8 7 6 6 6 5 4 5 5 5 4 4 4 5 5 5 5 5 4 5 4 3 3 2 3 3 4 5 5 4 4 3 3 2 2 1 1 0 -1 -2 -3 -4 -4 -4 -3 -3 -4 -6 -6 -7 -1 1 2 7 11 9 9 9 10 9 10 12 13 13 13 12 11 11 10 9 8 7 10 11 11 10 6 4 2
11 12 11 10 9 9 8 7 5 5 5 4 2 4 4 5 4 3 2 3 3 4 4 4 4 4 3 3 3 2 2 1 1 1 1 1 2 2 1 -1 -0 -1 -1 -2 -2 -4 -5 -5 -5 -4 -4 -6 -8 -9 -8 -9 -8 -6 -5 -4 -2 -1 3 5 5 4 7 6 6 8 7 7 7 8 8 8 8 8 5 4 1 0 0 -1 -0
13 11 11 10 9 8 7 6 5 5 5 4 4 4 3 3 2 2 1 1 2 2 3 2 2 3 3 2 1 0 1 1 -0 -0 -1 -3 -3 -3 -2 -2 -3 -3 -4 -5 -7 -7 -6 -6 -6 -6 -8 -10 -9 -10 -8 -7 -7 -7 -7 -7 -8 -7 -7 -7 -5 -3 -2 -3 -3 3 4 2 -1 -2 -2 -3 -3 -4 -3 -3 -3 -5 -5 -5 -1
10 10 10 10 9 7 6 4 4 4 5 5 4 4 3 3 3 1 1 1 1 1 1 1 1 1 2 1 0 -0 -0 -0 -1 -3 -4 -5 -4 -5 -4 -6 -7 -7 -4 -4 -6 -6 -6 -6 -6 -6 -8 -10 -10 -8 -7 -4 -5 -4 -7 -9 -9 -9 -8 -7 -5 -3 -7 -10 -10 -11 -10 -8 -9 -5 -5 -5 -5 -5 -5 -6 -7 -7 -6 -7 -7
9 9 9 9 7 6 4 3 4 5 6 5 4 4 2 2 0 -0 -0 -0 0 0 1 0 0 -0 0 0 0 -0 -2 -1 -2 -3 -4 -4 -2 1 -2 -4 -5 -1 -0 2 2 -5 -5 -6 -7 -6 -6 -6 -7 -6 1 5 8 6 -1 -2 -3 -3 -3 -5 -4 -2 -2 -14 -14 -14 -12 -10 -9 -9 -8 -8 -8 -8 -8 -8 -8 -5 -6 -7 -8
8 8 8 7 5 4 3 3 5 7 6 5 4 3 1 -1 -0 -1 -1 -1 -1 -1 -1 -1 -0 -1 0 0 -0 -0 -1 -2 -2 -2 -4 -4 -5 -3 7 7 4 1 2 5 9 10 10 1 -3 -5 -4 -1 -1 2 6 6 7 9 7 3 1 0 -0 -0 -0 -1 -4 -9 -10 -11 -10 -10 -9 -9 -10 -10 -9 -9 -9 -9 -8 -8 -8 -8 -6